Location: Heisede
(52.2582°N, 9.8523°E)
Time: 20:46:23
(UTC+00:00)

BREEZE M DEB (TANK) - Pass Details

Date: 13 January 2026
Orbit: 287 x 11206 km, 49.5° (Epoch: 16 February)

Event Time Altitude Azimuth Distance (km) Brightness Sun altitude
Exits shadow 05:17:33 32° 226° (SW) 899 3.1 -18.6°
Maximum altitude 05:18:24 37° 192° (SSW) 904 3.4 -18.4°
Drops below altitude 10° 05:24:18 10° 126° (SE) 3,252 7.3 -17.6°
Sets 05:29:31 0° 121° (ESE) 5,544 8.9 -16.8°
